Time,TemperatureF,DewpointF,PressureIn,WindDirection,WindDirectionDegrees,WindSpeedMPH,WindSpeedGustMPH,Humidity,HourlyPrecipIn,Conditions,Clouds,dailyrainin,SoftwareType,DateUTC
2013-05-16 00:01:00,69.9,60.8,30.09,East,97,0.0,2.0,73,0.00,,,0.00,WeatherCatV1.15B25,2013-05-16 04:01:00,
2013-05-16 00:06:00,69.8,60.7,30.09,ESE,106,0.0,1.0,73,0.00,,,0.00,WeatherCatV1.15B25,2013-05-16 04:06:00,
2013-05-16 00:11:00,69.8,60.7,30.08,ESE,107,0.0,2.0,73,0.00,,,0.00,WeatherCatV1.15B25,2013-05-16 04:11:00,
2013-05-16 00:16:00,69.8,60.7,30.08,East,99,2.0,2.0,73,0.00,,,0.00,WeatherCatV1.15B25,2013-05-16 04:16:00,
2013-05-16 00:21:00,69.7,60.6,30.08,ESE,109,1.0,2.0,73,0.00,,,0.00,WeatherCatV1.15B25,2013-05-16 04:21:00,
2013-05-16 00:26:00,69.6,60.5,30.08,ESE,108,0.0,2.0,73,0.00,,,0.00,WeatherCatV1.15B25,2013-05-16 04:26:00,
2013-05-16 00:29:00,69.6,60.5,30.08,East,96,1.0,2.0,73,0.00,,,0.00,WeatherCatV1.15B25,2013-05-16 04:29:00,
2013-05-16 00:34:00,69.5,60.5,30.08,East,91,0.0,3.0,73,0.00,,,0.00,WeatherCatV1.15B25,2013-05-16 04:34:00,
2013-05-16 00:39:00,69.4,60.4,30.08,East,92,0.0,1.0,73,0.00,,,0.00,WeatherCatV1.15B25,2013-05-16 04:39:00,
2013-05-16 00:44:00,69.3,60.6,30.08,ESE,118,0.0,3.0,74,0.00,,,0.00,WeatherCatV1.15B25,2013-05-16 04:44:00,
2013-05-16 00:49:00,69.2,60.5,30.08,East,92,1.0,4.0,74,0.00,,,0.00,WeatherCatV1.15B25,2013-05-16 04:49:00,
2013-05-16 00:54:00,69.2,60.9,30.08,ESE,121,0.0,3.0,75,0.00,,,0.00,WeatherCatV1.15B25,2013-05-16 04:54:00,
2013-05-16 00:59:00,69.1,60.8,30.08,ESE,114,2.0,2.0,75,0.00,,,0.00,WeatherCatV1.15B25,2013-05-16 04:59:00,
2013-05-16 01:04:00,69.0,61.1,30.08,SSE,153,0.0,5.0,76,0.00,,,0.00,WeatherCatV1.15B25,2013-05-16 05:04:00,
2013-05-16 01:09:00,69.0,61.1,30.08,East,85,0.0,3.0,76,0.00,,,0.00,WeatherCatV1.15B25,2013-05-16 05:09:00,
2013-05-16 01:14:00,69.0,61.1,30.08,ESE,115,0.0,4.0,76,0.00,,,0.00,WeatherCatV1.15B25,2013-05-16 05:14:00,
2013-05-16 01:19:00,69.0,61.5,30.07,East,100,0.0,4.0,77,0.00,,,0.00,WeatherCatV1.15B25,2013-05-16 05:19:00,
2013-05-16 01:24:00,68.9,61.4,30.07,ESE,107,0.0,1.0,77,0.00,,,0.00,WeatherCatV1.15B25,2013-05-16 05:24:00,
2013-05-16 01:29:00,68.9,61.7,30.07,ESE,107,0.0,2.0,78,0.00,,,0.00,WeatherCatV1.15B25,2013-05-16 05:29:00,
2013-05-16 01:30:00,68.9,61.7,30.07,ESE,108,1.0,1.0,78,0.00,,,0.00,WeatherCatV1.15B25,2013-05-16 05:30:00,
2013-05-16 01:35:00,68.8,61.7,30.07,East,100,1.0,2.0,78,0.00,,,0.00,WeatherCatV1.15B25,2013-05-16 05:35:00,
2013-05-16 01:40:00,68.8,61.7,30.07,ESE,107,0.0,2.0,78,0.00,,,0.00,WeatherCatV1.15B25,2013-05-16 05:40:00,
2013-05-16 01:45:00,68.6,61.8,30.07,SE,126,0.0,2.0,79,0.00,,,0.00,WeatherCatV1.15B25,2013-05-16 05:45:00,
2013-05-16 01:50:00,68.5,61.7,30.07,East,96,0.0,2.0,79,0.00,,,0.00,WeatherCatV1.15B25,2013-05-16 05:50:00,
2013-05-16 01:55:00,68.4,61.6,30.07,ESE,111,0.0,5.0,79,0.00,,,0.00,WeatherCatV1.15B25,2013-05-16 05:55:00,
2013-05-16 02:00:00,68.3,61.9,30.07,East,99,1.0,2.0,80,0.00,,,0.00,WeatherCatV1.15B25,2013-05-16 06:00:00,
2013-05-16 02:05:00,68.3,61.9,30.07,SE,133,2.0,5.0,80,0.00,,,0.00,WeatherCatV1.15B25,2013-05-16 06:05:00,
2013-05-16 02:10:00,68.2,61.8,30.07,ESE,112,2.0,4.0,80,0.00,,,0.00,WeatherCatV1.15B25,2013-05-16 06:10:00,
2013-05-16 02:15:00,68.2,62.1,30.06,ESE,115,1.0,4.0,81,0.00,,,0.00,WeatherCatV1.15B25,2013-05-16 06:15:00,
2013-05-16 02:20:00,68.1,62.0,30.07,ESE,107,0.0,1.0,81,0.00,,,0.00,WeatherCatV1.15B25,2013-05-16 06:20:00,
2013-05-16 02:25:00,68.0,61.9,30.06,ESE,113,0.0,1.0,81,0.00,,,0.00,WeatherCatV1.15B25,2013-05-16 06:25:00,
2013-05-16 02:30:00,68.0,62.3,30.06,East,94,0.0,4.0,82,0.00,,,0.00,WeatherCatV1.15B25,2013-05-16 06:30:00,
2013-05-16 02:35:00,67.9,62.2,30.06,ESE,119,2.0,2.0,82,0.00,,,0.00,WeatherCatV1.15B25,2013-05-16 06:35:00,
2013-05-16 02:40:00,67.7,62.0,30.06,SE,128,0.0,1.0,82,0.00,,,0.00,WeatherCatV1.15B25,2013-05-16 06:40:00,
2013-05-16 02:45:00,67.6,61.9,30.06,ESE,117,0.0,4.0,82,0.00,,,0.00,WeatherCatV1.15B25,2013-05-16 06:45:00,
2013-05-16 02:50:00,67.5,62.1,30.06,ESE,123,0.0,4.0,83,0.00,,,0.00,WeatherCatV1.15B25,2013-05-16 06:50:00,
2013-05-16 02:55:00,67.5,62.1,30.06,SE,142,0.0,2.0,83,0.00,,,0.00,WeatherCatV1.15B25,2013-05-16 06:55:00,
2013-05-16 03:00:00,67.4,62.0,30.05,ESE,115,0.0,2.0,83,0.00,,,0.00,WeatherCatV1.15B25,2013-05-16 07:00:00,
2013-05-16 03:05:00,67.3,62.0,30.05,ESE,107,1.0,5.0,83,0.00,,,0.00,WeatherCatV1.15B25,2013-05-16 07:05:00,
2013-05-16 03:10:00,67.2,61.9,30.05,East,84,1.0,2.0,83,0.00,,,0.00,WeatherCatV1.15B25,2013-05-16 07:10:00,
2013-05-16 03:15:00,67.2,61.9,30.05,East,96,1.0,1.0,83,0.00,,,0.00,WeatherCatV1.15B25,2013-05-16 07:15:00,
2013-05-16 03:20:00,67.0,62.0,30.05,SE,126,0.0,2.0,84,0.00,,,0.00,WeatherCatV1.15B25,2013-05-16 07:20:00,
2013-05-16 03:25:00,67.0,62.0,30.05,ESE,114,0.0,1.0,84,0.00,,,0.00,WeatherCatV1.15B25,2013-05-16 07:25:00,
2013-05-16 03:30:00,66.8,61.8,30.05,ESE,115,0.0,0.0,84,0.00,,,0.00,WeatherCatV1.15B25,2013-05-16 07:30:00,
2013-05-16 03:35:00,66.7,61.7,30.05,ESE,115,0.0,0.0,84,0.00,,,0.00,WeatherCatV1.15B25,2013-05-16 07:35:00,
2013-05-16 03:40:00,66.6,61.9,30.05,ESE,115,0.0,4.0,85,0.00,,,0.00,WeatherCatV1.15B25,2013-05-16 07:40:00,
2013-05-16 03:45:00,66.5,61.8,30.05,ESE,115,0.0,1.0,85,0.00,,,0.00,WeatherCatV1.15B25,2013-05-16 07:45:00,
2013-05-16 03:50:00,66.4,61.7,30.04,ESE,115,0.0,2.0,85,0.00,,,0.00,WeatherCatV1.15B25,2013-05-16 07:50:00,
2013-05-16 03:55:00,66.3,61.6,30.04,ESE,116,0.0,1.0,85,0.00,,,0.00,WeatherCatV1.15B25,2013-05-16 07:55:00,
2013-05-16 04:00:00,66.2,61.9,30.04,ENE,74,0.0,5.0,86,0.00,,,0.00,WeatherCatV1.15B25,2013-05-16 08:00:00,
2013-05-16 04:05:00,66.1,61.8,30.04,ESE,115,5.0,5.0,86,0.00,,,0.00,WeatherCatV1.15B25,2013-05-16 08:05:00,
2013-05-16 04:10:00,66.0,61.7,30.04,SE,129,0.0,0.0,86,0.00,,,0.00,WeatherCatV1.15B25,2013-05-16 08:10:00,
2013-05-16 04:15:00,66.0,62.0,30.04,SE,129,0.0,2.0,87,0.00,,,0.00,WeatherCatV1.15B25,2013-05-16 08:15:00,
2013-05-16 04:20:00,65.9,61.9,30.04,East,96,1.0,5.0,87,0.00,,,0.00,WeatherCatV1.15B25,2013-05-16 08:20:00,
2013-05-16 04:25:00,65.8,61.8,30.04,East,89,1.0,2.0,87,0.00,,,0.00,WeatherCatV1.15B25,2013-05-16 08:25:00,
2013-05-16 04:30:00,65.8,61.8,30.04,ESE,113,1.0,5.0,87,0.00,,,0.00,WeatherCatV1.15B25,2013-05-16 08:30:00,
2013-05-16 04:35:00,65.8,61.8,30.04,ESE,111,0.0,2.0,87,0.00,,,0.00,WeatherCatV1.15B25,2013-05-16 08:35:00,
2013-05-16 04:40:00,65.7,62.0,30.04,ENE,73,0.0,2.0,88,0.00,,,0.00,WeatherCatV1.15B25,2013-05-16 08:40:00,
2013-05-16 04:45:00,65.7,62.0,30.04,ESE,115,2.0,2.0,88,0.00,,,0.00,WeatherCatV1.15B25,2013-05-16 08:45:00,
2013-05-16 04:50:00,65.6,61.9,30.04,ESE,109,0.0,4.0,88,0.00,,,0.00,WeatherCatV1.15B25,2013-05-16 08:50:00,
2013-05-16 04:55:00,65.6,61.9,30.04,ESE,105,0.0,4.0,88,0.00,,,0.00,WeatherCatV1.15B25,2013-05-16 08:55:00,
2013-05-16 05:00:00,65.6,61.9,30.04,East,85,0.0,2.0,88,0.00,,,0.00,WeatherCatV1.15B25,2013-05-16 09:00:00,
2013-05-16 05:05:00,65.6,61.9,30.04,ESE,112,0.0,5.0,88,0.00,,,0.00,WeatherCatV1.15B25,2013-05-16 09:05:00,
2013-05-16 05:10:00,65.6,61.9,30.04,ESE,123,2.0,2.0,88,0.00,,,0.00,WeatherCatV1.15B25,2013-05-16 09:10:00,
2013-05-16 05:15:00,65.5,61.8,30.04,ESE,121,0.0,1.0,88,0.00,,,0.00,WeatherCatV1.15B25,2013-05-16 09:15:00,
2013-05-16 05:20:00,65.4,61.7,30.04,ESE,116,2.0,3.0,88,0.00,,,0.00,WeatherCatV1.15B25,2013-05-16 09:20:00,
2013-05-16 05:25:00,65.4,61.7,30.04,ESE,116,0.0,1.0,88,0.00,,,0.00,WeatherCatV1.15B25,2013-05-16 09:25:00,
2013-05-16 05:30:00,65.3,61.6,30.04,SE,124,0.0,1.0,88,0.00,,,0.00,WeatherCatV1.15B25,2013-05-16 09:30:00,
2013-05-16 05:35:00,65.2,61.5,30.04,ESE,123,4.0,4.0,88,0.00,,,0.00,WeatherCatV1.15B25,2013-05-16 09:35:00,
2013-05-16 05:40:00,65.2,61.5,30.04,SE,130,0.0,1.0,88,0.00,,,0.00,WeatherCatV1.15B25,2013-05-16 09:40:00,
2013-05-16 05:45:00,65.1,61.8,30.04,ESE,106,2.0,5.0,89,0.00,,,0.00,WeatherCatV1.15B25,2013-05-16 09:45:00,
2013-05-16 05:50:00,65.1,61.5,30.04,ESE,113,0.0,1.0,88,0.00,,,0.00,WeatherCatV1.15B25,2013-05-16 09:50:00,
2013-05-16 05:55:00,65.1,61.5,30.04,East,95,0.0,1.0,88,0.00,,,0.00,WeatherCatV1.15B25,2013-05-16 09:55:00,
2013-05-16 06:00:00,65.0,61.4,30.04,ESE,103,0.0,1.0,88,0.00,,,0.00,WeatherCatV1.15B25,2013-05-16 10:00:00,
2013-05-16 06:05:00,65.0,61.4,30.04,ESE,107,0.0,1.0,88,0.00,,,0.00,WeatherCatV1.15B25,2013-05-16 10:05:00,
2013-05-16 06:10:00,65.0,61.7,30.04,ESE,109,0.0,2.0,89,0.00,,,0.00,WeatherCatV1.15B25,2013-05-16 10:10:00,
2013-05-16 06:15:00,64.9,61.6,30.05,ESE,112,0.0,2.0,89,0.00,,,0.00,WeatherCatV1.15B25,2013-05-16 10:15:00,
2013-05-16 06:20:00,64.9,61.3,30.05,ESE,112,0.0,1.0,88,0.00,,,0.00,WeatherCatV1.15B25,2013-05-16 10:20:00,
2013-05-16 06:25:00,64.9,61.6,30.05,ESE,112,0.0,1.0,89,0.00,,,0.00,WeatherCatV1.15B25,2013-05-16 10:25:00,
2013-05-16 06:30:00,64.8,61.5,30.05,ESE,113,0.0,0.0,89,0.00,,,0.00,WeatherCatV1.15B25,2013-05-16 10:30:00,
2013-05-16 06:35:00,64.7,61.4,30.05,ESE,113,0.0,1.0,89,0.00,,,0.00,WeatherCatV1.15B25,2013-05-16 10:35:00,
2013-05-16 06:36:00,64.7,61.4,30.06,ESE,113,0.0,1.0,89,0.00,,,0.00,WeatherCatV1.15B25,2013-05-16 10:36:00,
2013-05-16 06:41:00,64.7,61.4,30.06,ESE,113,0.0,2.0,89,0.00,,,0.00,WeatherCatV1.15B25,2013-05-16 10:41:00,
2013-05-16 06:46:00,64.6,61.3,30.06,ESE,113,1.0,1.0,89,0.00,,,0.00,WeatherCatV1.15B25,2013-05-16 10:46:00,
2013-05-16 06:51:00,64.6,61.3,30.07,ESE,113,0.0,1.0,89,0.00,,,0.00,WeatherCatV1.15B25,2013-05-16 10:51:00,
2013-05-16 06:56:00,64.6,61.3,30.07,ESE,113,0.0,1.0,89,0.00,,,0.00,WeatherCatV1.15B25,2013-05-16 10:56:00,
2013-05-16 07:01:00,64.5,61.2,30.07,ESE,113,0.0,0.0,89,0.00,,,0.00,WeatherCatV1.15B25,2013-05-16 11:01:00,
2013-05-16 07:06:00,64.5,61.2,30.07,ESE,113,0.0,1.0,89,0.00,,,0.00,WeatherCatV1.15B25,2013-05-16 11:06:00,
2013-05-16 07:11:00,64.7,61.7,30.07,ESE,113,0.0,2.0,90,0.00,,,0.00,WeatherCatV1.15B25,2013-05-16 11:11:00,
2013-05-16 07:16:00,64.9,61.6,30.07,ESE,113,0.0,3.0,89,0.00,,,0.00,WeatherCatV1.15B25,2013-05-16 11:16:00,
2013-05-16 07:21:00,65.3,62.0,30.08,ESE,117,0.0,1.0,89,0.00,,,0.00,WeatherCatV1.15B25,2013-05-16 11:21:00,
2013-05-16 07:26:00,65.8,62.1,30.08,East,91,0.0,0.0,88,0.00,,,0.00,WeatherCatV1.15B25,2013-05-16 11:26:00,
2013-05-16 07:31:00,66.3,62.3,30.08,ESE,109,0.0,2.0,87,0.00,,,0.00,WeatherCatV1.15B25,2013-05-16 11:31:00,
2013-05-16 07:36:00,66.8,62.5,30.08,ESE,114,0.0,0.0,86,0.00,,,0.00,WeatherCatV1.15B25,2013-05-16 11:36:00,
2013-05-16 07:41:00,67.4,62.7,30.08,East,94,0.0,2.0,85,0.00,,,0.00,WeatherCatV1.15B25,2013-05-16 11:41:00,
2013-05-16 07:46:00,68.1,62.7,30.08,ESE,108,0.0,5.0,83,0.00,,,0.00,WeatherCatV1.15B25,2013-05-16 11:46:00,
2013-05-16 07:51:00,68.6,62.9,30.08,East,96,2.0,4.0,82,0.00,,,0.00,WeatherCatV1.15B25,2013-05-16 11:51:00,
2013-05-16 07:56:00,69.2,63.1,30.09,ESE,111,0.0,2.0,81,0.00,,,0.00,WeatherCatV1.15B25,2013-05-16 11:56:00,
2013-05-16 08:01:00,69.7,63.2,30.09,ENE,76,0.0,2.0,80,0.00,,,0.00,WeatherCatV1.15B25,2013-05-16 12:01:00,
2013-05-16 08:06:00,70.4,63.6,30.09,SE,131,0.0,2.0,79,0.00,,,0.00,WeatherCatV1.15B25,2013-05-16 12:06:00,
2013-05-16 08:11:00,71.0,63.4,30.09,ESE,107,0.0,4.0,77,0.00,,,0.00,WeatherCatV1.15B25,2013-05-16 12:11:00,
2013-05-16 08:16:00,71.4,63.4,30.09,ESE,117,2.0,2.0,76,0.00,,,0.00,WeatherCatV1.15B25,2013-05-16 12:16:00,
2013-05-16 08:21:00,71.7,63.3,30.09,SSE,150,0.0,4.0,75,0.00,,,0.00,WeatherCatV1.15B25,2013-05-16 12:21:00,
2013-05-16 08:26:00,72.0,63.6,30.09,ESE,117,0.0,1.0,75,0.00,,,0.00,WeatherCatV1.15B25,2013-05-16 12:26:00,
2013-05-16 08:31:00,72.6,63.0,30.10,ESE,120,1.0,7.0,72,0.00,,,0.00,WeatherCatV1.15B25,2013-05-16 12:31:00,
2013-05-16 08:36:00,73.2,63.6,30.10,SSE,161,1.0,2.0,72,0.00,,,0.00,WeatherCatV1.15B25,2013-05-16 12:36:00,
2013-05-16 08:41:00,73.7,63.3,30.10,ESE,119,0.0,5.0,70,0.00,,,0.00,WeatherCatV1.15B25,2013-05-16 12:41:00,
2013-05-16 08:46:00,73.9,63.1,30.10,ESE,110,1.0,4.0,69,0.00,,,0.00,WeatherCatV1.15B25,2013-05-16 12:46:00,
2013-05-16 08:51:00,74.2,62.9,30.10,SE,132,0.0,6.0,68,0.00,,,0.00,WeatherCatV1.15B25,2013-05-16 12:51:00,
2013-05-16 08:56:00,74.4,63.1,30.10,ESE,115,1.0,2.0,68,0.00,,,0.00,WeatherCatV1.15B25,2013-05-16 12:56:00,
2013-05-16 09:01:00,74.9,62.8,30.11,South,174,1.0,6.0,66,0.00,,,0.00,WeatherCatV1.15B25,2013-05-16 13:01:00,
2013-05-16 09:06:00,75.2,63.0,30.10,South,171,0.0,5.0,66,0.00,,,0.00,WeatherCatV1.15B25,2013-05-16 13:06:00,
2013-05-16 09:11:00,75.8,63.6,30.10,East,90,4.0,5.0,66,0.00,,,0.00,WeatherCatV1.15B25,2013-05-16 13:11:00,
2013-05-16 09:16:00,76.3,63.2,30.11,SE,134,1.0,6.0,64,0.00,,,0.00,WeatherCatV1.15B25,2013-05-16 13:16:00,
2013-05-16 09:21:00,76.7,62.7,30.11,SSE,163,1.0,5.0,62,0.00,,,0.00,WeatherCatV1.15B25,2013-05-16 13:21:00,
2013-05-16 09:26:00,76.8,62.8,30.11,South,175,1.0,5.0,62,0.00,,,0.00,WeatherCatV1.15B25,2013-05-16 13:26:00,
2013-05-16 09:31:00,77.1,63.5,30.11,SE,126,1.0,5.0,63,0.00,,,0.00,WeatherCatV1.15B25,2013-05-16 13:31:00,
2013-05-16 09:36:00,77.5,63.0,30.11,ESE,109,2.0,5.0,61,0.00,,,0.00,WeatherCatV1.15B25,2013-05-16 13:36:00,
2013-05-16 09:41:00,77.8,63.3,30.11,South,182,0.0,2.0,61,0.00,,,0.00,WeatherCatV1.15B25,2013-05-16 13:41:00,
2013-05-16 09:46:00,78.0,63.4,30.10,South,182,6.0,7.0,61,0.00,,,0.00,WeatherCatV1.15B25,2013-05-16 13:46:00,
2013-05-16 09:51:00,78.1,63.1,30.11,SE,132,1.0,5.0,60,0.00,,,0.00,WeatherCatV1.15B25,2013-05-16 13:51:00,
2013-05-16 09:56:00,78.2,63.2,30.11,SSE,151,0.0,4.0,60,0.00,,,0.00,WeatherCatV1.15B25,2013-05-16 13:56:00,
2013-05-16 10:01:00,78.4,62.9,30.11,NE,54,0.0,3.0,59,0.00,,,0.00,WeatherCatV1.15B25,2013-05-16 14:01:00,
2013-05-16 10:06:00,78.9,62.8,30.11,South,180,4.0,6.0,58,0.00,,,0.00,WeatherCatV1.15B25,2013-05-16 14:06:00,
2013-05-16 10:11:00,79.1,63.0,30.11,South,172,4.0,6.0,58,0.00,,,0.00,WeatherCatV1.15B25,2013-05-16 14:11:00,
2013-05-16 10:16:00,79.5,62.9,30.11,South,170,2.0,6.0,57,0.00,,,0.00,WeatherCatV1.15B25,2013-05-16 14:16:00,
2013-05-16 10:21:00,79.7,62.6,30.11,SSE,165,1.0,4.0,56,0.00,,,0.00,WeatherCatV1.15B25,2013-05-16 14:21:00,
2013-05-16 10:26:00,80.0,62.4,30.11,ESE,114,2.0,5.0,55,0.00,,,0.00,WeatherCatV1.15B25,2013-05-16 14:26:00,
2013-05-16 10:31:00,80.4,63.2,30.11,SSW,194,0.0,2.0,56,0.00,,,0.00,WeatherCatV1.15B25,2013-05-16 14:31:00,
2013-05-16 10:36:00,80.8,62.0,30.11,South,180,1.0,4.0,53,0.00,,,0.00,WeatherCatV1.15B25,2013-05-16 14:36:00,
2013-05-16 10:41:00,80.9,63.2,30.11,South,170,0.0,3.0,55,0.00,,,0.00,WeatherCatV1.15B25,2013-05-16 14:41:00,
2013-05-16 10:46:00,81.0,62.8,30.11,SW,214,1.0,4.0,54,0.00,,,0.00,WeatherCatV1.15B25,2013-05-16 14:46:00,
2013-05-16 10:51:00,81.6,62.8,30.11,SSE,154,0.0,5.0,53,0.00,,,0.00,WeatherCatV1.15B25,2013-05-16 14:51:00,
2013-05-16 10:56:00,82.0,62.6,30.12,South,173,0.0,4.0,52,0.00,,,0.00,WeatherCatV1.15B25,2013-05-16 14:56:00,
2013-05-16 11:01:00,82.1,62.7,30.12,SE,131,2.0,3.0,52,0.00,,,0.00,WeatherCatV1.15B25,2013-05-16 15:01:00,
2013-05-16 11:06:00,81.9,62.5,30.12,SSE,161,4.0,4.0,52,0.00,,,0.00,WeatherCatV1.15B25,2013-05-16 15:06:00,
2013-05-16 11:11:00,81.6,64.4,30.11,WNW,282,0.0,5.0,56,0.00,,,0.00,WeatherCatV1.15B25,2013-05-16 15:11:00,
2013-05-16 11:16:00,82.3,65.5,30.11,NW,320,4.0,8.0,57,0.00,,,0.00,WeatherCatV1.15B25,2013-05-16 15:16:00,
2013-05-16 11:21:00,83.4,66.5,30.11,WNW,290,5.0,6.0,57,0.00,,,0.00,WeatherCatV1.15B25,2013-05-16 15:21:00,
2013-05-16 11:26:00,84.0,66.6,30.12,West,278,2.0,5.0,56,0.00,,,0.00,WeatherCatV1.15B25,2013-05-16 15:26:00,
2013-05-16 11:31:00,83.9,65.4,30.12,WNW,286,5.0,6.0,54,0.00,,,0.00,WeatherCatV1.15B25,2013-05-16 15:31:00,
2013-05-16 11:36:00,83.0,65.1,30.12,WNW,300,0.0,2.0,55,0.00,,,0.00,WeatherCatV1.15B25,2013-05-16 15:36:00,
2013-05-16 11:41:00,82.3,64.5,30.12,SE,129,1.0,2.0,55,0.00,,,0.00,WeatherCatV1.15B25,2013-05-16 15:41:00,
2013-05-16 11:46:00,81.8,65.6,30.12,NW,315,4.0,6.0,58,0.00,,,0.00,WeatherCatV1.15B25,2013-05-16 15:46:00,
2013-05-16 11:51:00,82.0,65.7,30.12,West,263,3.0,9.0,58,0.00,,,0.00,WeatherCatV1.15B25,2013-05-16 15:51:00,
2013-05-16 11:56:00,82.2,64.9,30.12,WSW,240,4.0,5.0,56,0.00,,,0.00,WeatherCatV1.15B25,2013-05-16 15:56:00,
2013-05-16 12:01:00,83.0,66.7,30.12,SW,232,3.0,6.0,58,0.00,,,0.00,WeatherCatV1.15B25,2013-05-16 16:01:00,
2013-05-16 12:06:00,83.9,67.0,30.12,WSW,246,4.0,5.0,57,0.00,,,0.00,WeatherCatV1.15B25,2013-05-16 16:06:00,
2013-05-16 12:11:00,84.7,66.2,30.12,South,184,1.0,7.0,54,0.00,,,0.00,WeatherCatV1.15B25,2013-05-16 16:11:00,
2013-05-16 12:16:00,84.9,66.9,30.12,SSW,202,0.0,4.0,55,0.00,,,0.00,WeatherCatV1.15B25,2013-05-16 16:16:00,
2013-05-16 12:21:00,85.0,65.9,30.11,West,267,1.0,4.0,53,0.00,,,0.00,WeatherCatV1.15B25,2013-05-16 16:21:00,
2013-05-16 12:26:00,84.8,66.8,30.11,South,182,0.0,3.0,55,0.00,,,0.00,WeatherCatV1.15B25,2013-05-16 16:26:00,
2013-05-16 12:31:00,85.1,67.6,30.11,WSW,243,0.0,9.0,56,0.00,,,0.00,WeatherCatV1.15B25,2013-05-16 16:31:00,
2013-05-16 12:36:00,85.1,64.9,30.11,South,182,2.0,2.0,51,0.00,,,0.00,WeatherCatV1.15B25,2013-05-16 16:36:00,
2013-05-16 12:41:00,84.9,64.7,30.10,SSW,198,0.0,4.0,51,0.00,,,0.00,WeatherCatV1.15B25,2013-05-16 16:41:00,
2013-05-16 12:46:00,85.2,65.6,30.10,East,90,0.0,5.0,52,0.00,,,0.00,WeatherCatV1.15B25,2013-05-16 16:46:00,
2013-05-16 12:51:00,85.4,65.7,30.10,SSE,163,3.0,8.0,52,0.00,,,0.00,WeatherCatV1.15B25,2013-05-16 16:51:00,
2013-05-16 12:56:00,85.4,64.6,30.10,WSW,238,0.0,8.0,50,0.00,,,0.00,WeatherCatV1.15B25,2013-05-16 16:56:00,
2013-05-16 13:01:00,85.4,66.3,30.09,SSW,204,1.0,5.0,53,0.00,,,0.00,WeatherCatV1.15B25,2013-05-16 17:01:00,
2013-05-16 13:06:00,85.8,65.5,30.09,WNW,294,4.0,8.0,51,0.00,,,0.00,WeatherCatV1.15B25,2013-05-16 17:06:00,
2013-05-16 13:11:00,86.1,66.4,30.08,WSW,257,0.0,5.0,52,0.00,,,0.00,WeatherCatV1.15B25,2013-05-16 17:11:00,
2013-05-16 13:16:00,85.8,65.5,30.08,South,184,4.0,4.0,51,0.00,,,0.00,WeatherCatV1.15B25,2013-05-16 17:16:00,
2013-05-16 13:21:00,85.7,66.0,30.08,WNW,294,2.0,3.0,52,0.00,,,0.00,WeatherCatV1.15B25,2013-05-16 17:21:00,
2013-05-16 13:26:00,86.2,65.9,30.08,NW,311,4.0,7.0,51,0.00,,,0.00,WeatherCatV1.15B25,2013-05-16 17:26:00,
2013-05-16 13:31:00,86.3,66.6,30.08,SW,227,1.0,6.0,52,0.00,,,0.00,WeatherCatV1.15B25,2013-05-16 17:31:00,
2013-05-16 13:36:00,86.4,66.7,30.08,West,281,4.0,8.0,52,0.00,,,0.00,WeatherCatV1.15B25,2013-05-16 17:36:00,
2013-05-16 13:41:00,86.1,66.9,30.08,WSW,254,2.0,4.0,53,0.00,,,0.00,WeatherCatV1.15B25,2013-05-16 17:41:00,
2013-05-16 13:46:00,86.2,66.5,30.08,South,173,0.0,6.0,52,0.00,,,0.00,WeatherCatV1.15B25,2013-05-16 17:46:00,
2013-05-16 13:51:00,86.4,66.7,30.07,WNW,288,1.0,5.0,52,0.00,,,0.00,WeatherCatV1.15B25,2013-05-16 17:51:00,
2013-05-16 13:56:00,86.5,66.2,30.07,West,280,5.0,9.0,51,0.00,,,0.00,WeatherCatV1.15B25,2013-05-16 17:56:00,
2013-05-16 14:01:00,86.3,66.6,30.07,West,278,5.0,9.0,52,0.00,,,0.00,WeatherCatV1.15B25,2013-05-16 18:01:00,
2013-05-16 14:06:00,86.2,65.3,30.07,WNW,290,9.0,14.0,50,0.00,,,0.00,WeatherCatV1.15B25,2013-05-16 18:06:00,
2013-05-16 14:11:00,85.7,65.5,30.07,WNW,292,9.0,9.0,51,0.00,,,0.00,WeatherCatV1.15B25,2013-05-16 18:11:00,
2013-05-16 14:16:00,85.7,66.0,30.07,SSW,204,1.0,4.0,52,0.00,,,0.00,WeatherCatV1.15B25,2013-05-16 18:16:00,
2013-05-16 14:21:00,85.6,64.8,30.07,WNW,283,4.0,4.0,50,0.00,,,0.00,WeatherCatV1.15B25,2013-05-16 18:21:00,
2013-05-16 14:26:00,85.6,65.4,30.07,WNW,293,6.0,10.0,51,0.00,,,0.00,WeatherCatV1.15B25,2013-05-16 18:26:00,
2013-05-16 14:31:00,85.6,64.2,30.07,NW,309,5.0,12.0,49,0.00,,,0.00,WeatherCatV1.15B25,2013-05-16 18:31:00,
2013-05-16 14:36:00,85.4,65.2,30.06,WNW,288,9.0,9.0,51,0.00,,,0.00,WeatherCatV1.15B25,2013-05-16 18:36:00,
2013-05-16 14:41:00,85.6,65.4,30.06,WNW,300,2.0,9.0,51,0.00,,,0.00,WeatherCatV1.15B25,2013-05-16 18:41:00,
2013-05-16 14:46:00,85.5,65.3,30.06,NW,322,6.0,13.0,51,0.00,,,0.00,WeatherCatV1.15B25,2013-05-16 18:46:00,
2013-05-16 14:51:00,85.4,65.7,30.05,WNW,293,3.0,9.0,52,0.00,,,0.00,WeatherCatV1.15B25,2013-05-16 18:51:00,
2013-05-16 14:56:00,85.4,65.7,30.05,WSW,244,1.0,7.0,52,0.00,,,0.00,WeatherCatV1.15B25,2013-05-16 18:56:00,
2013-05-16 15:01:00,85.6,65.4,30.05,NW,325,2.0,6.0,51,0.00,,,0.00,WeatherCatV1.15B25,2013-05-16 19:01:00,
2013-05-16 15:06:00,85.8,66.1,30.05,West,278,6.0,7.0,52,0.00,,,0.00,WeatherCatV1.15B25,2013-05-16 19:06:00,
2013-05-16 15:11:00,85.7,66.0,30.05,West,272,6.0,10.0,52,0.00,,,0.00,WeatherCatV1.15B25,2013-05-16 19:11:00,
2013-05-16 15:16:00,85.5,64.7,30.05,West,275,8.0,10.0,50,0.00,,,0.00,WeatherCatV1.15B25,2013-05-16 19:16:00,
2013-05-16 15:21:00,85.1,64.3,30.04,WNW,295,4.0,8.0,50,0.00,,,0.00,WeatherCatV1.15B25,2013-05-16 19:21:00,
2013-05-16 15:26:00,85.2,65.0,30.04,WSW,250,2.0,6.0,51,0.00,,,0.00,WeatherCatV1.15B25,2013-05-16 19:26:00,
2013-05-16 15:31:00,85.5,65.8,30.04,WSW,246,4.0,6.0,52,0.00,,,0.00,WeatherCatV1.15B25,2013-05-16 19:31:00,
2013-05-16 15:36:00,85.7,67.1,30.03,West,273,6.0,8.0,54,0.00,,,0.00,WeatherCatV1.15B25,2013-05-16 19:36:00,
2013-05-16 15:41:00,85.6,65.9,30.03,WSW,242,5.0,7.0,52,0.00,,,0.00,WeatherCatV1.15B25,2013-05-16 19:41:00,
2013-05-16 15:46:00,85.4,66.3,30.03,WNW,288,9.0,9.0,53,0.00,,,0.00,WeatherCatV1.15B25,2013-05-16 19:46:00,
2013-05-16 15:51:00,85.2,66.1,30.03,SW,225,1.0,9.0,53,0.00,,,0.00,WeatherCatV1.15B25,2013-05-16 19:51:00,
2013-05-16 15:56:00,85.1,66.6,30.03,WNW,286,4.0,12.0,54,0.00,,,0.00,WeatherCatV1.15B25,2013-05-16 19:56:00,
2013-05-16 16:01:00,84.9,66.4,30.02,SW,236,3.0,7.0,54,0.00,,,0.00,WeatherCatV1.15B25,2013-05-16 20:01:00,
2013-05-16 16:06:00,85.0,67.0,30.02,WNW,284,7.0,10.0,55,0.00,,,0.00,WeatherCatV1.15B25,2013-05-16 20:06:00,
2013-05-16 16:11:00,84.6,66.1,30.02,NW,309,6.0,12.0,54,0.00,,,0.00,WeatherCatV1.15B25,2013-05-16 20:11:00,
2013-05-16 16:16:00,84.4,66.4,30.02,West,281,9.0,9.0,55,0.00,,,0.00,WeatherCatV1.15B25,2013-05-16 20:16:00,
2013-05-16 16:21:00,84.5,66.5,30.02,WSW,254,5.0,8.0,55,0.00,,,0.00,WeatherCatV1.15B25,2013-05-16 20:21:00,
2013-05-16 16:26:00,84.7,67.2,30.02,West,264,4.0,8.0,56,0.00,,,0.00,WeatherCatV1.15B25,2013-05-16 20:26:00,
2013-05-16 16:31:00,84.6,66.6,30.01,West,278,7.0,10.0,55,0.00,,,0.00,WeatherCatV1.15B25,2013-05-16 20:31:00,
2013-05-16 16:36:00,84.5,67.0,30.01,SW,225,2.0,5.0,56,0.00,,,0.00,WeatherCatV1.15B25,2013-05-16 20:36:00,
2013-05-16 16:41:00,84.5,67.6,30.01,WSW,255,2.0,9.0,57,0.00,,,0.00,WeatherCatV1.15B25,2013-05-16 20:41:00,
2013-05-16 16:46:00,84.5,67.6,30.01,WNW,284,5.0,8.0,57,0.00,,,0.00,WeatherCatV1.15B25,2013-05-16 20:46:00,
2013-05-16 16:51:00,84.6,67.1,30.01,West,269,4.0,9.0,56,0.00,,,0.00,WeatherCatV1.15B25,2013-05-16 20:51:00,
2013-05-16 16:56:00,84.5,67.0,30.01,West,263,1.0,7.0,56,0.00,,,0.00,WeatherCatV1.15B25,2013-05-16 20:56:00,
2013-05-16 17:01:00,84.1,65.6,30.01,West,274,4.0,7.0,54,0.00,,,0.00,WeatherCatV1.15B25,2013-05-16 21:01:00,
2013-05-16 17:06:00,83.9,65.4,30.01,South,169,4.0,9.0,54,0.00,,,0.00,WeatherCatV1.15B25,2013-05-16 21:06:00,
2013-05-16 17:11:00,83.8,65.9,30.01,SSE,158,2.0,5.0,55,0.00,,,0.00,WeatherCatV1.15B25,2013-05-16 21:11:00,
2013-05-16 17:16:00,83.9,66.0,30.01,South,184,2.0,8.0,55,0.00,,,0.00,WeatherCatV1.15B25,2013-05-16 21:16:00,
2013-05-16 17:21:00,83.7,66.3,30.01,West,278,6.0,8.0,56,0.00,,,0.00,WeatherCatV1.15B25,2013-05-16 21:21:00,
2013-05-16 17:26:00,83.6,65.7,30.01,WSW,243,0.0,6.0,55,0.00,,,0.00,WeatherCatV1.15B25,2013-05-16 21:26:00,
2013-05-16 17:31:00,83.3,65.4,30.01,West,267,6.0,11.0,55,0.00,,,0.00,WeatherCatV1.15B25,2013-05-16 21:31:00,
2013-05-16 17:36:00,83.0,65.7,30.00,WNW,283,0.0,5.0,56,0.00,,,0.00,WeatherCatV1.15B25,2013-05-16 21:36:00,
2013-05-16 17:41:00,83.0,66.2,30.00,West,261,5.0,6.0,57,0.00,,,0.00,WeatherCatV1.15B25,2013-05-16 21:41:00,
2013-05-16 17:46:00,82.9,66.1,30.00,WSW,238,5.0,6.0,57,0.00,,,0.00,WeatherCatV1.15B25,2013-05-16 21:46:00,
2013-05-16 17:51:00,82.8,66.5,30.00,WSW,243,0.0,6.0,58,0.00,,,0.00,WeatherCatV1.15B25,2013-05-16 21:51:00,
2013-05-16 17:56:00,82.7,66.9,30.00,WSW,241,0.0,4.0,59,0.00,,,0.00,WeatherCatV1.15B25,2013-05-16 21:56:00,
2013-05-16 18:01:00,82.3,66.5,30.00,West,279,4.0,6.0,59,0.00,,,0.00,WeatherCatV1.15B25,2013-05-16 22:01:00,
2013-05-16 18:06:00,81.9,65.6,30.00,SSW,207,0.0,5.0,58,0.00,,,0.00,WeatherCatV1.15B25,2013-05-16 22:06:00,
2013-05-16 18:11:00,81.4,65.7,30.00,West,263,0.0,5.0,59,0.00,,,0.00,WeatherCatV1.15B25,2013-05-16 22:11:00,
2013-05-16 18:16:00,81.2,66.4,30.00,SW,236,4.0,6.0,61,0.00,,,0.00,WeatherCatV1.15B25,2013-05-16 22:16:00,
2013-05-16 18:21:00,81.1,66.4,30.00,WNW,294,5.0,6.0,61,0.00,,,0.00,WeatherCatV1.15B25,2013-05-16 22:21:00,
2013-05-16 18:26:00,80.9,65.7,30.00,West,277,3.0,5.0,60,0.00,,,0.00,WeatherCatV1.15B25,2013-05-16 22:26:00,
2013-05-16 18:31:00,80.8,66.1,30.00,WNW,285,2.0,5.0,61,0.00,,,0.00,WeatherCatV1.15B25,2013-05-16 22:31:00,
2013-05-16 18:36:00,80.7,66.0,30.00,West,275,7.0,7.0,61,0.00,,,0.00,WeatherCatV1.15B25,2013-05-16 22:36:00,
2013-05-16 18:41:00,80.6,66.4,30.00,WNW,286,4.0,6.0,62,0.00,,,0.00,WeatherCatV1.15B25,2013-05-16 22:41:00,
2013-05-16 18:46:00,80.3,65.1,30.00,WNW,293,1.0,8.0,60,0.00,,,0.00,WeatherCatV1.15B25,2013-05-16 22:46:00,
2013-05-16 18:51:00,80.0,65.3,30.00,WNW,286,4.0,7.0,61,0.00,,,0.00,WeatherCatV1.15B25,2013-05-16 22:51:00,
2013-05-16 18:56:00,79.7,65.0,30.00,West,262,1.0,5.0,61,0.00,,,0.00,WeatherCatV1.15B25,2013-05-16 22:56:00,
2013-05-16 19:01:00,79.3,65.1,30.00,WNW,294,5.0,7.0,62,0.00,,,0.00,WeatherCatV1.15B25,2013-05-16 23:01:00,
2013-05-16 19:06:00,79.0,65.8,30.00,WNW,295,1.0,4.0,64,0.00,,,0.00,WeatherCatV1.15B25,2013-05-16 23:06:00,
2013-05-16 19:11:00,78.8,67.3,30.00,WNW,292,2.0,6.0,68,0.00,,,0.00,WeatherCatV1.15B25,2013-05-16 23:11:00,
2013-05-16 19:16:00,78.6,65.4,30.00,WNW,295,4.0,7.0,64,0.00,,,0.00,WeatherCatV1.15B25,2013-05-16 23:16:00,
2013-05-16 19:21:00,78.4,65.6,30.00,WNW,292,1.0,3.0,65,0.00,,,0.00,WeatherCatV1.15B25,2013-05-16 23:21:00,
2013-05-16 19:26:00,78.2,65.0,30.00,WNW,291,2.0,7.0,64,0.00,,,0.00,WeatherCatV1.15B25,2013-05-16 23:26:00,
2013-05-16 19:31:00,78.1,65.4,30.00,NW,311,0.0,5.0,65,0.00,,,0.00,WeatherCatV1.15B25,2013-05-16 23:31:00,
2013-05-16 19:36:00,78.0,65.7,30.00,West,278,0.0,1.0,66,0.00,,,0.00,WeatherCatV1.15B25,2013-05-16 23:36:00,
2013-05-16 19:41:00,78.0,65.3,30.00,NW,304,1.0,5.0,65,0.00,,,0.00,WeatherCatV1.15B25,2013-05-16 23:41:00,
2013-05-16 19:46:00,77.8,65.5,30.00,WNW,288,0.0,2.0,66,0.00,,,0.00,WeatherCatV1.15B25,2013-05-16 23:46:00,
2013-05-16 19:51:00,77.7,65.0,30.00,West,273,1.0,2.0,65,0.00,,,0.00,WeatherCatV1.15B25,2013-05-16 23:51:00,
2013-05-16 19:56:00,77.5,65.2,30.01,West,273,0.0,0.0,66,0.00,,,0.00,WeatherCatV1.15B25,2013-05-16 23:56:00,
2013-05-16 20:01:00,77.4,65.1,30.01,West,273,0.0,1.0,66,0.00,,,0.00,WeatherCatV1.15B25,2013-05-17 00:01:00,
2013-05-16 20:06:00,77.2,64.9,30.01,West,273,0.0,1.0,66,0.00,,,0.00,WeatherCatV1.15B25,2013-05-17 00:06:00,
2013-05-16 20:11:00,77.0,65.2,30.01,West,275,5.0,5.0,67,0.00,,,0.00,WeatherCatV1.15B25,2013-05-17 00:11:00,
2013-05-16 20:16:00,76.8,64.6,30.01,West,276,0.0,1.0,66,0.00,,,0.00,WeatherCatV1.15B25,2013-05-17 00:16:00,
2013-05-16 20:21:00,76.7,64.9,30.01,West,276,0.0,0.0,67,0.00,,,0.00,WeatherCatV1.15B25,2013-05-17 00:21:00,
2013-05-16 20:26:00,76.6,64.8,30.01,West,276,0.0,0.0,67,0.00,,,0.00,WeatherCatV1.15B25,2013-05-17 00:26:00,
2013-05-16 20:31:00,76.4,65.0,30.02,West,276,0.0,0.0,68,0.00,,,0.00,WeatherCatV1.15B25,2013-05-17 00:31:00,
2013-05-16 20:36:00,76.2,64.8,30.02,WNW,285,1.0,4.0,68,0.00,,,0.00,WeatherCatV1.15B25,2013-05-17 00:36:00,
2013-05-16 20:41:00,75.9,65.0,30.02,WNW,300,0.0,5.0,69,0.00,,,0.00,WeatherCatV1.15B25,2013-05-17 00:41:00,
2013-05-16 20:46:00,75.8,64.9,30.02,WNW,295,0.0,5.0,69,0.00,,,0.00,WeatherCatV1.15B25,2013-05-17 00:46:00,
2013-05-16 20:51:00,75.6,64.7,30.02,WNW,295,0.0,2.0,69,0.00,,,0.00,WeatherCatV1.15B25,2013-05-17 00:51:00,
2013-05-16 20:56:00,75.5,65.0,30.02,WNW,294,1.0,4.0,70,0.00,,,0.00,WeatherCatV1.15B25,2013-05-17 00:56:00,
2013-05-16 21:01:00,75.4,65.3,30.02,WNW,294,0.0,2.0,71,0.00,,,0.00,WeatherCatV1.15B25,2013-05-17 01:01:00,
2013-05-16 21:06:00,75.2,65.1,30.02,WNW,294,0.0,1.0,71,0.00,,,0.00,WeatherCatV1.15B25,2013-05-17 01:06:00,
2013-05-16 21:11:00,75.1,65.0,30.02,WNW,294,2.0,2.0,71,0.00,,,0.00,WeatherCatV1.15B25,2013-05-17 01:11:00,
2013-05-16 21:16:00,74.9,65.2,30.03,WNW,294,0.0,0.0,72,0.00,,,0.00,WeatherCatV1.15B25,2013-05-17 01:16:00,
2013-05-16 21:21:00,74.8,65.2,30.03,WNW,294,0.0,1.0,72,0.00,,,0.00,WeatherCatV1.15B25,2013-05-17 01:21:00,
2013-05-16 21:26:00,74.6,65.4,30.03,WNW,294,0.0,0.0,73,0.00,,,0.00,WeatherCatV1.15B25,2013-05-17 01:26:00,
2013-05-16 21:31:00,74.5,65.7,30.02,WNW,294,0.0,3.0,74,0.00,,,0.00,WeatherCatV1.15B25,2013-05-17 01:31:00,
2013-05-16 21:36:00,74.4,65.6,30.03,WNW,294,0.0,2.0,74,0.00,,,0.00,WeatherCatV1.15B25,2013-05-17 01:36:00,
2013-05-16 21:41:00,74.0,65.2,30.03,WNW,295,1.0,2.0,74,0.00,,,0.00,WeatherCatV1.15B25,2013-05-17 01:41:00,
2013-05-16 21:46:00,73.8,65.7,30.03,WNW,294,1.0,1.0,76,0.00,,,0.00,WeatherCatV1.15B25,2013-05-17 01:46:00,
2013-05-16 21:51:00,73.7,65.7,30.03,North,350,0.0,1.0,76,0.00,,,0.00,WeatherCatV1.15B25,2013-05-17 01:51:00,
2013-05-16 21:56:00,73.5,65.5,30.03,North,355,0.0,1.0,76,0.00,,,0.00,WeatherCatV1.15B25,2013-05-17 01:56:00,
2013-05-16 22:01:00,73.4,65.7,30.03,NW,314,0.0,2.0,77,0.00,,,0.00,WeatherCatV1.15B25,2013-05-17 02:01:00,
2013-05-16 22:06:00,73.3,66.0,30.03,North,350,0.0,2.0,78,0.00,,,0.00,WeatherCatV1.15B25,2013-05-17 02:06:00,
2013-05-16 22:11:00,73.3,66.0,30.04,North,350,0.0,0.0,78,0.00,,,0.00,WeatherCatV1.15B25,2013-05-17 02:11:00,
2013-05-16 22:16:00,73.2,65.9,30.04,North,350,0.0,0.0,78,0.00,,,0.00,WeatherCatV1.15B25,2013-05-17 02:16:00,
2013-05-16 22:21:00,73.1,66.2,30.04,North,350,0.0,1.0,79,0.00,,,0.00,WeatherCatV1.15B25,2013-05-17 02:21:00,
2013-05-16 22:26:00,73.1,66.2,30.05,North,350,0.0,0.0,79,0.00,,,0.00,WeatherCatV1.15B25,2013-05-17 02:26:00,
2013-05-16 22:31:00,73.0,66.5,30.05,North,350,0.0,0.0,80,0.00,,,0.00,WeatherCatV1.15B25,2013-05-17 02:31:00,
2013-05-16 22:36:00,72.9,66.4,30.05,North,350,0.0,0.0,80,0.00,,,0.00,WeatherCatV1.15B25,2013-05-17 02:36:00,
2013-05-16 22:41:00,72.8,66.6,30.05,North,350,0.0,0.0,81,0.00,,,0.00,WeatherCatV1.15B25,2013-05-17 02:41:00,
2013-05-16 22:46:00,72.8,66.6,30.05,North,350,0.0,1.0,81,0.00,,,0.00,WeatherCatV1.15B25,2013-05-17 02:46:00,
2013-05-16 22:51:00,72.7,66.5,30.05,North,350,0.0,0.0,81,0.00,,,0.00,WeatherCatV1.15B25,2013-05-17 02:51:00,
2013-05-16 22:56:00,72.7,66.5,30.05,North,350,0.0,1.0,81,0.00,,,0.00,WeatherCatV1.15B25,2013-05-17 02:56:00,
2013-05-16 23:01:00,72.7,66.5,30.05,North,350,1.0,1.0,81,0.00,,,0.00,WeatherCatV1.15B25,2013-05-17 03:01:00,
2013-05-16 23:06:00,72.7,66.5,30.05,NNW,345,0.0,2.0,81,0.00,,,0.00,WeatherCatV1.15B25,2013-05-17 03:06:00,
2013-05-16 23:11:00,72.7,66.9,30.05,NNW,344,0.0,0.0,82,0.00,,,0.00,WeatherCatV1.15B25,2013-05-17 03:11:00,
2013-05-16 23:16:00,72.8,67.0,30.05,NNW,344,0.0,0.0,82,0.00,,,0.00,WeatherCatV1.15B25,2013-05-17 03:16:00,
2013-05-16 23:21:00,72.7,66.9,30.05,NNW,344,0.0,0.0,82,0.00,,,0.00,WeatherCatV1.15B25,2013-05-17 03:21:00,
2013-05-16 23:26:00,72.7,66.9,30.05,NNW,344,0.0,0.0,82,0.00,,,0.00,WeatherCatV1.15B25,2013-05-17 03:26:00,
2013-05-16 23:31:00,72.6,66.8,30.05,NNW,344,0.0,0.0,82,0.00,,,0.00,WeatherCatV1.15B25,2013-05-17 03:31:00,
2013-05-16 23:36:00,72.5,67.0,30.06,NNW,344,0.0,1.0,83,0.00,,,0.00,WeatherCatV1.15B25,2013-05-17 03:36:00,
2013-05-16 23:41:00,72.4,66.9,30.06,NNW,344,0.0,0.0,83,0.00,,,0.00,WeatherCatV1.15B25,2013-05-17 03:41:00,
2013-05-16 23:46:00,72.4,67.3,30.06,NNW,347,0.0,2.0,84,0.00,,,0.00,WeatherCatV1.15B25,2013-05-17 03:46:00,
2013-05-16 23:51:00,72.5,67.4,30.06,NNW,348,0.0,1.0,84,0.00,,,0.00,WeatherCatV1.15B25,2013-05-17 03:51:00,
2013-05-16 23:56:00,72.6,67.5,30.06,NNW,348,0.0,1.0,84,0.00,,,0.00,WeatherCatV1.15B25,2013-05-17 03:56:00,